Location: Baili�vre
(50.0696°N, 4.2409°E)
Time: 05:13:32
(UTC+00:00)

IRIDIUM 103 - Pass Details

Date: 08 August 2020
Orbit: 776 x 779 km, 86.4° (Epoch: 19 September)

Event Time Altitude Azimuth Distance (km) Brightness Sun altitude
Rises 19:43:18 0° 168° (SSE) 3,251 7.1 -5.0°
Reaches altitude 10° 19:45:41 10° 165° (SSE) 2,328 6.4 -5.3°
Maximum altitude 19:50:45 56° 88° (E) 931 4.5 -6.0°
Drops below altitude 10° 19:55:52 10° 12° (NNE) 2,345 7.1 -6.7°
Sets 19:58:16 0° 8° (N) 3,277 8.0 -7.0°
